Simultaneous Nadir Overpasses (SNOs) Predictions

Prediction of SNOs between AQUA and NPP Satellite Orbit:

Table of predicted SNOs for the next 14.0 days since TLE Epoch: 4/23/2022
Index Date (AQUA) Time (AQUA) Lat,Lon (AQUA) SZA (AQUA ) Date (NPP) Time (NPP) Lat,Lon (NPP) SZA (NPP ) Distance(km) Time Diff (sec)
1 04/23/2022 03:52:54 64.26, -16.43 96.94 04/23/2022 03:53:03 64.60, -18.20 97.17 92.90 9
2 04/25/2022 19:15:36 -77.30, -44.74 97.68 04/25/2022 19:15:04 -77.29, -44.84 97.63 2.45 32
3 04/25/2022 20:04:41 78.20, 126.87 81.18 04/25/2022 20:05:26 78.21, 126.96 81.12 2.29 45
4 04/28/2022 10:42:21 77.15, -96.97 81.65 04/28/2022 10:41:14 77.15, -96.96 81.70 0.47 67
5 04/28/2022 11:31:32 -77.90, 73.77 99.29 04/28/2022 11:31:42 -77.90, 73.80 99.30 0.82 10
6 05/01/2022 02:58:20 77.64, 20.96 80.23 05/01/2022 02:57:56 77.64, 21.00 80.24 0.92 24
7 05/01/2022 03:47:34 -78.23,-168.69 100.55 05/01/2022 03:48:27 -78.24,-168.63 100.60 1.52 53
8 05/03/2022 18:25:12 -77.27, -32.21 100.11 05/03/2022 18:24:14 -77.27, -32.21 100.06 0.06 58
9 05/03/2022 19:14:23 77.90, 138.10 79.10 05/03/2022 19:14:43 77.90, 138.05 79.09 1.27 20
10 05/06/2022 10:41:10 -77.74, 85.70 101.45 05/06/2022 10:40:56 -77.74, 85.74 101.45 0.95 14



Historial Predications of SNOs between AQUA and NPP
